TimeCDT,TemperatureF,Dew PointF,Humidity,Sea Level PressureIn,VisibilityMPH,Wind Direction,Wind SpeedMPH,Gust SpeedMPH,PrecipitationIn,Events,Conditions,WindDirDegrees,DateUTC
12:53 AM,37.0,26.1,65,30.32,10.0,North,15.0,21.9,N/A,,Overcast,350,2012-10-26 05:53:00
1:53 AM,37.0,25.0,62,30.32,10.0,North,11.5,-,N/A,,Overcast,360,2012-10-26 06:53:00
2:53 AM,37.0,26.1,65,30.34,10.0,North,11.5,-,N/A,,Overcast,10,2012-10-26 07:53:00
3:27 AM,33.8,24.8,70,30.33,10.0,North,4.6,-,N/A,,Scattered Clouds,360,2012-10-26 08:27:00
3:53 AM,33.1,25.0,72,30.37,10.0,NNW,4.6,-,N/A,,Clear,330,2012-10-26 08:53:00
4:53 AM,34.0,26.1,73,30.38,10.0,NNW,8.1,-,N/A,,Overcast,330,2012-10-26 09:53:00
5:53 AM,32.0,26.1,79,30.41,10.0,WNW,4.6,-,N/A,,Clear,300,2012-10-26 10:53:00
6:53 AM,30.0,25.0,82,30.43,10.0,WNW,8.1,-,N/A,,Clear,300,2012-10-26 11:53:00
7:53 AM,30.0,26.1,85,30.43,10.0,NW,8.1,-,N/A,,Clear,320,2012-10-26 12:53:00
8:53 AM,33.1,26.1,75,30.45,10.0,NNW,10.4,-,N/A,,Clear,340,2012-10-26 13:53:00
9:53 AM,37.9,26.1,62,30.46,10.0,North,16.1,23.0,N/A,,Clear,350,2012-10-26 14:53:00
10:53 AM,39.9,26.1,58,30.47,10.0,NNW,13.8,-,N/A,,Scattered Clouds,340,2012-10-26 15:53:00
11:53 AM,41.0,27.0,57,30.48,10.0,NNW,13.8,-,N/A,,Mostly Cloudy,340,2012-10-26 16:53:00
12:53 PM,42.1,27.0,55,30.48,10.0,NNW,13.8,-,N/A,,Mostly Cloudy,340,2012-10-26 17:53:00
1:53 PM,41.0,27.0,57,30.46,10.0,NW,10.4,-,N/A,,Mostly Cloudy,310,2012-10-26 18:53:00
2:53 PM,43.0,28.0,56,30.44,10.0,North,11.5,17.3,N/A,,Scattered Clouds,360,2012-10-26 19:53:00
3:53 PM,44.1,26.1,49,30.42,10.0,North,11.5,-,N/A,,Clear,350,2012-10-26 20:53:00
4:53 PM,44.1,27.0,51,30.42,10.0,NNW,9.2,-,N/A,,Clear,340,2012-10-26 21:53:00
5:53 PM,39.9,27.0,60,30.42,10.0,NW,10.4,-,N/A,,Clear,320,2012-10-26 22:53:00
6:53 PM,37.0,26.1,65,30.42,10.0,North,5.8,-,N/A,,Clear,350,2012-10-26 23:53:00
7:53 PM,35.1,26.1,70,30.43,10.0,North,8.1,-,N/A,,Clear,350,2012-10-27 00:53:00
8:53 PM,33.1,25.0,72,30.44,10.0,North,5.8,-,N/A,,Clear,360,2012-10-27 01:53:00
9:53 PM,30.9,25.0,79,30.45,10.0,North,6.9,-,N/A,,Clear,350,2012-10-27 02:53:00
10:53 PM,30.9,24.1,76,30.45,10.0,NNW,4.6,-,N/A,,Clear,330,2012-10-27 03:53:00
11:53 PM,32.0,24.1,73,30.42,10.0,North,3.5,-,N/A,,Clear,350,2012-10-27 04:53:00